Location: Bremen
(53.0833°N, 8.8000°E)
Time: 17:06:54
(UTC+02:00)

ISS - Visible Passes

Search period start: 25 April 2025 00:00
Search period end: 05 May 2025 00:00
Orbit: 417 x 420 km, 51.6° (Epoch: 25 April)

Date Brightness Start Highest point End Pass type
(mag) Time Alt. Az. Time Alt. Az. Time Alt. Az.
25 Apr -1.3 03:45:16 12° SE 03:45:26 12° SE 03:46:41 10° ESE visible
25 Apr -2.9 05:18:24 10° SW 05:21:33 38° SSE 05:24:43 10° E visible
26 Apr -2.5 04:32:12 18° SSW 04:33:59 30° SSE 04:36:58 10° E visible
27 Apr -2.2 03:46:08 22° SSE 03:46:24 22° SSE 03:49:06 10° E visible
27 Apr -3.5 05:19:29 10° WSW 05:22:47 58° SSE 05:26:07 10° E visible
28 Apr -1.4 03:00:00 14° ESE 03:00:00 14° ESE 03:01:01 10° ESE visible
28 Apr -3.3 04:32:55 19° SW 04:35:05 48° SSE 04:38:21 10° E visible
29 Apr -3.1 03:46:43 34° S 03:47:22 38° SSE 03:50:31 10° E visible
30 Apr -2.3 03:00:28 26° SE 03:00:28 26° SE 03:02:37 10° E visible
30 Apr -3.7 04:33:23 14° WSW 04:36:07 65° S 04:39:28 10° E visible
01 May -1.1 02:14:09 12° E 02:14:09 12° E 02:14:36 10° E visible
01 May -3.7 03:47:04 34° SW 03:48:17 57° SSE 03:51:36 10° E visible
02 May -3.4 03:00:42 46° SE 03:00:42 46° SE 03:03:41 10° E visible
02 May -3.8 04:33:41 10° W 04:37:03 69° S 04:40:24 10° E visible
03 May -1.9 02:14:18 21° ESE 02:14:18 21° ESE 02:15:42 10° E visible
03 May -3.8 03:47:12 23° WSW 03:49:07 69° S 03:52:28 10° E visible
04 May -3.8 03:00:45 58° SSW 03:01:09 65° S 03:04:29 10° E visible
04 May -3.7 04:34:29 10° W 04:37:48 58° SSW 04:41:07 10° ESE visible
